< < Back
Terminal Aerodrome Forecast


Current Version              Previous Versions:   1  2  3  4  5  6  7  8  9  

Terminal Aerodrome Forecast

348
FTUS42 KFFC 271732
TAFFTY
TAF
KFTY 271732Z 2718/2818 14007KT P6SM SCT050 BKN070
     FM280000 11003KT P6SM FEW060 SCT250
     FM281700 09005KT P6SM SCT045 SCT250=



Latest METAR

933
SAUS70 KWBC 280600 RRN
MTRFTY
METAR KFTY 280553Z 14007KT 10SM CLR 23/16 A3008 RMK AO2 SLP176 T02280156
10278 20194 58000


USA.gov is the U.S. government's official web portal to all federal, state and local government web resources and services.